• In Deutschland
  • Länderverzeichnis
  • Für 7 Tage
  • Wassertemperatur
  • Satellitenkarten
  • Wetterkarte
  • Widgets
  • user-avatar
    Anmelden

    Stündliche Wetter Annaba

    Heute, 27 Juni, Dienstag

    Zeit Temperatur Niederschläge Wind Luftdruck Luftfeuchtigkeit
    00:00 +29°C° 0 mm 4 m/S 757 mmHg 50%
    01:00 +29°C° 0 mm 3 m/S 758 mmHg 50%
    02:00 +29°C° 0 mm 3 m/S 757 mmHg 48%
    03:00 +29°C° 0 mm 2 m/S 757 mmHg 46%
    04:00 +29°C° 0 mm 2 m/S 757 mmHg 44%
    05:00 +31°C° 0 mm 2 m/S 757 mmHg 43%
    06:00 +32°C° 0 mm 1 m/S 757 mmHg 41%
    07:00 +33°C° 0 mm 1 m/S 757 mmHg 40%
    08:00 +35°C° 0 mm 1 m/S 757 mmHg 35%
    09:00 +37°C° 0 mm 1 m/S 757 mmHg 30%
    10:00 +41°C° 0 mm 2 m/S 757 mmHg 25%
    11:00 +42°C° 0 mm 2 m/S 757 mmHg 23%
    12:00 +44°C° 0 mm 3 m/S 757 mmHg 22%
    13:00 +45°C° 0 mm 4 m/S 756 mmHg 20%
    14:00 +44°C° 0 mm 4 m/S 756 mmHg 22%
    15:00 +43°C° 0 mm 4 m/S 756 mmHg 24%
    16:00 +42°C° 0 mm 4 m/S 756 mmHg 26%
    17:00 +40°C° 0 mm 3 m/S 756 mmHg 28%
    18:00 +39°C° 0 mm 3 m/S 756 mmHg 31%
    19:00 +38°C° 0 mm 3 m/S 756 mmHg 33%
    20:00 +37°C° 0 mm 3 m/S 756 mmHg 35%
    21:00 +35°C° 0 mm 3 m/S 756 mmHg 37%
    22:00 +34°C° 0 mm 3 m/S 757 mmHg 40%
    23:00 +34°C° 0 mm 3 m/S 756 mmHg 40%

    Morgen, 28 Juni, Mittwoch

    Zeit Temperatur Niederschläge Wind Luftdruck Luftfeuchtigkeit
    00:00 +33°C° 0 mm 4 m/S 756 mmHg 40%
    01:00 +33°C° 0 mm 5 m/S 755 mmHg 40%
    02:00 +33°C° 0 mm 5 m/S 755 mmHg 40%
    03:00 +32°C° 0 mm 5 m/S 755 mmHg 40%
    04:00 +32°C° 0 mm 4 m/S 755 mmHg 40%
    05:00 +33°C° 0 mm 4 m/S 755 mmHg 38%
    06:00 +34°C° 0 mm 4 m/S 755 mmHg 36%
    07:00 +34°C° 0 mm 4 m/S 755 mmHg 35%
    08:00 +36°C° 0 mm 4 m/S 755 mmHg 31%
    09:00 +39°C° 0 mm 5 m/S 756 mmHg 28%
    10:00 +41°C° 0 mm 6 m/S 756 mmHg 25%
    11:00 +41°C° 0 mm 6 m/S 756 mmHg 26%
    12:00 +41°C° 0 mm 6 m/S 755 mmHg 28%
    13:00 +41°C° 0 mm 7 m/S 755 mmHg 29%
    14:00 +40°C° 0 mm 6 m/S 755 mmHg 33%
    15:00 +38°C° 0 mm 6 m/S 755 mmHg 36%
    16:00 +36°C° 0 mm 6 m/S 755 mmHg 40%
    17:00 +35°C° 0 mm 5 m/S 755 mmHg 45%
    18:00 +33°C° 0 mm 4 m/S 755 mmHg 51%
    19:00 +30°C° 0 mm 4 m/S 756 mmHg 56%
    20:00 +29°C° 0 mm 3 m/S 756 mmHg 60%
    21:00 +28°C° 0 mm 3 m/S 757 mmHg 65%
    22:00 +26°C° 0 mm 2 m/S 757 mmHg 69%
    23:00 +26°C° 0 mm 3 m/S 757 mmHg 69%

    übermorgen, 29 Juni, Donnerstag

    Zeit Temperatur Niederschläge Wind Luftdruck Luftfeuchtigkeit
    00:00 +25°C° 0 mm 3 m/S 757 mmHg 68%
    01:00 +25°C° 0 mm 3 m/S 757 mmHg 67%
    02:00 +25°C° 0 mm 3 m/S 757 mmHg 65%
    03:00 +24°C° 0 mm 3 m/S 757 mmHg 63%
    04:00 +24°C° 0 mm 3 m/S 757 mmHg 61%
    05:00 +26°C° 0 mm 3 m/S 757 mmHg 55%
    06:00 +27°C° 0 mm 3 m/S 757 mmHg 49%
    07:00 +29°C° 0 mm 2 m/S 757 mmHg 43%
    08:00 +31°C° 0 mm 2 m/S 757 mmHg 38%
    09:00 +32°C° 0 mm 2 m/S 757 mmHg 33%
    10:00 +35°C° 0 mm 2 m/S 757 mmHg 29%
    11:00 +36°C° 0 mm 3 m/S 757 mmHg 28%
    12:00 +37°C° 0 mm 4 m/S 756 mmHg 28%
    13:00 +40°C° 0 mm 4 m/S 756 mmHg 27%
    14:00 +39°C° 0 mm 5 m/S 756 mmHg 31%
    15:00 +36°C° 0 mm 5 m/S 756 mmHg 36%
    16:00 +35°C° 0 mm 5 m/S 755 mmHg 40%
    17:00 +34°C° 0 mm 4 m/S 756 mmHg 45%
    18:00 +31°C° 0 mm 3 m/S 756 mmHg 50%
    19:00 +30°C° 0 mm 2 m/S 756 mmHg 55%
    20:00 +28°C° 0 mm 2 m/S 757 mmHg 63%
    21:00 +27°C° 0 mm 2 m/S 757 mmHg 70%
    22:00 +25°C° 0 mm 1 m/S 758 mmHg 77%
    23:00 +25°C° 0 mm 1 m/S 757 mmHg 78%

    30 Juni, Freitag

    Zeit Temperatur Niederschläge Wind Luftdruck Luftfeuchtigkeit
    00:00 +25°C° 0 mm 1 m/S 757 mmHg 79%
    01:00 +24°C° 0 mm 1 m/S 757 mmHg 79%
    02:00 +24°C° 0 mm 2 m/S 756 mmHg 80%
    03:00 +24°C° 0 mm 2 m/S 756 mmHg 81%
    04:00 +23°C° 0 mm 2 m/S 755 mmHg 83%
    05:00 +25°C° 0 mm 2 m/S 755 mmHg 76%
    06:00 +26°C° 0 mm 2 m/S 755 mmHg 70%
    07:00 +28°C° 0 mm 2 m/S 755 mmHg 64%
    08:00 +31°C° 0 mm 2 m/S 755 mmHg 54%
    09:00 +36°C° 0 mm 2 m/S 755 mmHg 43%
    10:00 +39°C° 0 mm 2 m/S 755 mmHg 32%
    11:00 +40°C° 0 mm 3 m/S 754 mmHg 32%
    12:00 +42°C° 0 mm 4 m/S 754 mmHg 31%
    13:00 +42°C° 0 mm 5 m/S 754 mmHg 31%
    14:00 +41°C° 0 mm 5 m/S 754 mmHg 34%
    15:00 +40°C° 0 mm 4 m/S 753 mmHg 37%
    16:00 +38°C° 0 mm 4 m/S 753 mmHg 40%
    17:00 +35°C° 0 mm 4 m/S 754 mmHg 50%
    18:00 +33°C° 0 mm 5 m/S 754 mmHg 60%
    19:00 +29°C° 0 mm 5 m/S 754 mmHg 70%
    20:00 +29°C° 0 mm 5 m/S 755 mmHg 72%
    21:00 +28°C° 0 mm 6 m/S 757 mmHg 75%
    22:00 +27°C° 0 mm 6 m/S 758 mmHg 78%
    23:00 +26°C° 0 mm 6 m/S 758 mmHg 79%

    1 Juli, Samstag

    Zeit Temperatur Niederschläge Wind Luftdruck Luftfeuchtigkeit
    00:00 +26°C° 0 mm 5 m/S 759 mmHg 80%
    01:00 +26°C° 0 mm 5 m/S 759 mmHg 81%
    02:00 +26°C° 0,1 mm 4 m/S 759 mmHg 83%
    03:00 +25°C° 0,1 mm 4 m/S 759 mmHg 84%
    04:00 +25°C° 0,1 mm 3 m/S 759 mmHg 85%
    05:00 +25°C° 0,3 mm 3 m/S 759 mmHg 85%
    06:00 +25°C° 0,3 mm 3 m/S 759 mmHg 84%
    07:00 +25°C° 0,3 mm 3 m/S 760 mmHg 84%
    08:00 +26°C° 0,1 mm 3 m/S 760 mmHg 79%
    09:00 +26°C° 0,1 mm 4 m/S 760 mmHg 74%
    10:00 +27°C° 0,1 mm 4 m/S 760 mmHg 69%
    11:00 +28°C° 0 mm 4 m/S 760 mmHg 65%
    12:00 +28°C° 0 mm 4 m/S 760 mmHg 61%
    13:00 +29°C° 0 mm 4 m/S 760 mmHg 58%
    14:00 +29°C° 0 mm 5 m/S 760 mmHg 56%
    15:00 +29°C° 0 mm 5 m/S 760 mmHg 54%
    16:00 +29°C° 0 mm 6 m/S 760 mmHg 52%
    17:00 +28°C° 0,2 mm 6 m/S 761 mmHg 57%
    18:00 +27°C° 0,2 mm 6 m/S 761 mmHg 61%
    19:00 +26°C° 0,2 mm 6 m/S 761 mmHg 65%
    20:00 +25°C° 0,1 mm 5 m/S 762 mmHg 71%
    21:00 +23°C° 0,1 mm 5 m/S 762 mmHg 77%
    22:00 +22°C° 0,1 mm 4 m/S 763 mmHg 83%
    23:00 +22°C° 0 mm 4 m/S 763 mmHg 84%

    2 Juli, Sonntag

    Zeit Temperatur Niederschläge Wind Luftdruck Luftfeuchtigkeit
    00:00 +22°C° 0 mm 4 m/S 763 mmHg 86%
    01:00 +22°C° 0 mm 4 m/S 762 mmHg 87%
    02:00 +22°C° 0 mm 4 m/S 762 mmHg 87%
    03:00 +21°C° 0 mm 4 m/S 762 mmHg 86%
    04:00 +21°C° 0 mm 4 m/S 762 mmHg 86%
    05:00 +22°C° 0 mm 4 m/S 763 mmHg 81%
    06:00 +23°C° 0 mm 4 m/S 763 mmHg 75%
    07:00 +25°C° 0 mm 4 m/S 763 mmHg 70%
    08:00 +26°C° 0 mm 4 m/S 763 mmHg 64%
    09:00 +27°C° 0 mm 5 m/S 763 mmHg 58%
    10:00 +28°C° 0 mm 5 m/S 763 mmHg 52%
    11:00 +29°C° 0 mm 6 m/S 763 mmHg 49%
    12:00 +30°C° 0 mm 7 m/S 763 mmHg 47%
    13:00 +30°C° 0 mm 7 m/S 762 mmHg 45%
    14:00 +30°C° 0 mm 7 m/S 762 mmHg 46%
    15:00 +31°C° 0 mm 8 m/S 762 mmHg 48%
    16:00 +29°C° 0 mm 8 m/S 762 mmHg 49%
    17:00 +28°C° 0 mm 7 m/S 762 mmHg 54%
    18:00 +27°C° 0 mm 7 m/S 763 mmHg 59%
    19:00 +26°C° 0 mm 7 m/S 763 mmHg 63%
    20:00 +24°C° 0 mm 6 m/S 763 mmHg 69%
    21:00 +23°C° 0 mm 6 m/S 763 mmHg 74%
    22:00 +22°C° 0 mm 5 m/S 764 mmHg 79%
    23:00 +22°C° 0 mm 5 m/S 764 mmHg 80%
    Mehr zeigen